Luverne, MN

6:18 PM CDT on April 28, 2017 (GMT -0500)
Luverne

Weather History for KLYV - October, 2013

Change the Weather History Date:

Friday, October 4, 2013

  Actual Average (KPQN) Record (KPQN)
Temperature  
Mean Temperature 58 °F -  
Max Temperature 62 °F 63 °F 89 °F (2011)
Min Temperature 53 °F 40 °F 28 °F (2004)
Degree Days  
Heating Degree Days 8    
Growing Degree Days 8 (Base 50)    
Moisture  
Dew Point 55 °F    
Average Humidity 90    
Maximum Humidity 94    
Minimum Humidity 77    
Precipitation  
Precipitation 0.02 in - - ()
Sea Level Pressure  
Sea Level Pressure 29.82 in    
Wind  
Wind Speed 13 mph (ENE)    
Max Wind Speed 21 mph    
Max Gust Speed 28 mph    
Visibility 7 miles    
Events Rain , Thunderstorm    
Averages and records for this station are not official NWS values.
T = Trace of Precipitation, MM = Missing Value Source: NWS Daily Summary

Daily Weather History Graph

Daily Weather History Graph

Search for Another Location

Airport or City:

Trip Planner

Search our weather history database for the weather conditions in past years. The results will help you decide how hot, cold, wet, or windy it might be!

Date:

Astronomy

Oct. 04, 2013 Rise Set
Actual Time 7:26 AM CDT 7:00 PM CDT
Civil Twilight 6:57 AM CDT 7:28 PM CDT
Nautical Twilight 6:24 AM CDT 8:01 PM CDT
Astronomical Twilight 5:50 AM CDT 8:35 PM CDT
Moon 7:03 AM CDT (10/4) 6:41 PM CDT (10/4)
Length of Visible Light 12h 30m
Length of Day
11h 33m
Waning Crescent, 0% of the Moon is Illuminated
Oct 4
Waning Crescent
Oct 4
New
Oct 11
First Quarter
Oct 18
Full
Oct 26
Last Quarter

Hourly Weather History & Observations

Time (CDT) Temp. Dew Point Humidity Pressure Visibility Wind Dir Wind Speed Gust Speed Precip Events Conditions
12:13 AM 55.4 °F 53.6 °F 94% 29.90 in 10.0 mi NE 9.2 mph 17.3 mph N/A   Overcast
12:33 AM 55.4 °F 53.6 °F 94% 29.90 in 10.0 mi NE 11.5 mph 18.4 mph N/A   Overcast
12:53 AM 55.4 °F 53.6 °F 94% 29.87 in 10.0 mi NNE 15.0 mph 23.0 mph N/A   Overcast
1:13 AM 55.4 °F 53.6 °F 94% 29.89 in 10.0 mi NE 13.8 mph 18.4 mph N/A   Overcast
1:33 AM 55.4 °F 53.6 °F 94% 29.89 in 10.0 mi NE 15.0 mph 23.0 mph N/A   Overcast
1:53 AM 55.4 °F 53.6 °F 94% 29.87 in 10.0 mi NE 16.1 mph 23.0 mph N/A   Overcast
2:13 AM 55.4 °F 53.6 °F 94% 29.88 in 10.0 mi NE 15.0 mph 21.9 mph N/A   Overcast
2:33 AM 55.4 °F 51.8 °F 88% 29.87 in 10.0 mi NE 15.0 mph 20.7 mph N/A   Overcast
2:53 AM 55.4 °F 53.6 °F 94% 29.89 in 10.0 mi ENE 10.4 mph - N/A   Overcast
3:13 AM 55.4 °F 51.8 °F 88% 29.88 in 10.0 mi ENE 15.0 mph 19.6 mph N/A   Overcast
3:33 AM 55.4 °F 53.6 °F 94% 29.89 in 7.0 mi East 10.4 mph 18.4 mph N/A   Overcast
3:53 AM 55.4 °F 53.6 °F 94% 29.87 in 5.0 mi NE 11.5 mph 19.6 mph N/A   Overcast
4:13 AM 55.4 °F 53.6 °F 94% 29.88 in 4.0 mi ENE 11.5 mph 18.4 mph N/A   Overcast
4:33 AM 55.4 °F 53.6 °F 94% 29.89 in 5.0 mi ENE 9.2 mph - N/A   Overcast
4:52 AM 55.4 °F 53.6 °F 94% 29.88 in 7.0 mi ENE 9.2 mph 19.6 mph N/A   Overcast
5:13 AM 55.4 °F 53.6 °F 94% 29.89 in 7.0 mi ENE 10.4 mph - N/A   Overcast
5:33 AM 55.4 °F 53.6 °F 94% 29.90 in 7.0 mi NE 11.5 mph - N/A   Overcast
5:52 AM 55.4 °F 53.6 °F 94% 29.90 in 7.0 mi ENE 11.5 mph - N/A   Overcast
6:13 AM 55.4 °F 53.6 °F 94% 29.89 in 7.0 mi ENE 12.7 mph - N/A   Overcast
6:33 AM 55.4 °F 53.6 °F 94% 29.89 in 7.0 mi ENE 9.2 mph - N/A   Overcast
6:52 AM 55.4 °F 51.8 °F 88% 29.89 in 7.0 mi ENE 11.5 mph 20.7 mph N/A   Overcast
7:13 AM 53.6 °F 51.8 °F 94% 29.87 in 7.0 mi ENE 10.4 mph 18.4 mph N/A   Overcast
7:33 AM 53.6 °F 51.8 °F 94% 29.86 in 5.0 mi ENE 12.7 mph 17.3 mph N/A   Overcast
7:52 AM 53.6 °F 51.8 °F 94% 29.85 in 5.0 mi NE 15.0 mph 25.3 mph N/A   Overcast
8:13 AM 53.6 °F 51.8 °F 94% 29.86 in 4.0 mi ENE 13.8 mph 19.6 mph N/A   Overcast
8:33 AM 53.6 °F 51.8 °F 94% 29.87 in 5.0 mi ENE 11.5 mph - N/A   Overcast
8:52 AM 53.6 °F 51.8 °F 94% 29.87 in 4.0 mi ENE 12.7 mph 17.3 mph N/A   Overcast
9:13 AM 53.6 °F 51.8 °F 94% 29.88 in 2.5 mi ENE 12.7 mph 16.1 mph N/A   Overcast
9:33 AM 53.6 °F 51.8 °F 94% 29.89 in 3.0 mi ENE 12.7 mph 18.4 mph N/A   Overcast
9:52 AM 55.4 °F 51.8 °F 88% 29.89 in 4.0 mi ENE 12.7 mph 18.4 mph N/A   Overcast
10:13 AM 55.4 °F 53.6 °F 94% 29.89 in 4.0 mi ENE 12.7 mph 17.3 mph N/A   Overcast
10:32 AM 55.4 °F 53.6 °F 94% 29.89 in 1.8 mi ENE 11.5 mph 17.3 mph N/A   Overcast
10:53 AM 55.4 °F 53.6 °F 94% 29.89 in 2.0 mi ENE 11.5 mph - N/A   Overcast
11:13 AM 55.4 °F 53.6 °F 94% 29.88 in 3.0 mi ENE 15.0 mph 19.6 mph N/A   Overcast
11:32 AM 55.4 °F 53.6 °F 94% 29.88 in 4.0 mi ENE 15.0 mph 20.7 mph N/A   Overcast
11:53 AM 57.2 °F 53.6 °F 88% 29.87 in 5.0 mi ENE 18.4 mph 23.0 mph N/A   Overcast
12:13 PM 59.0 °F 53.6 °F 82% 29.86 in 10.0 mi ENE 13.8 mph 20.7 mph N/A   Overcast
12:32 PM 59.0 °F 53.6 °F 82% 29.87 in 10.0 mi ENE 17.3 mph 21.9 mph N/A   Overcast
12:53 PM 59.0 °F 53.6 °F 82% 29.84 in 10.0 mi ENE 17.3 mph 23.0 mph N/A   Overcast
1:13 PM 60.8 °F 55.4 °F 82% 29.83 in 10.0 mi ENE 13.8 mph 26.5 mph N/A   Overcast
1:32 PM 60.8 °F 55.4 °F 82% 29.83 in 10.0 mi ENE 17.3 mph 21.9 mph N/A   Overcast
1:53 PM 59.0 °F 55.4 °F 88% 29.83 in 10.0 mi East 13.8 mph 23.0 mph N/A   Overcast
2:13 PM 59.0 °F 55.4 °F 88% 29.81 in 5.0 mi ENE 17.3 mph 23.0 mph N/A   Overcast
2:32 PM 59.0 °F 55.4 °F 88% 29.80 in 7.0 mi ENE 13.8 mph 20.7 mph N/A   Overcast
2:53 PM 60.8 °F 55.4 °F 82% 29.79 in 10.0 mi ENE 19.6 mph 26.5 mph N/A   Overcast
3:12 PM 60.8 °F 55.4 °F 82% 29.78 in 10.0 mi ENE 17.3 mph 26.5 mph N/A   Overcast
3:33 PM 60.8 °F 55.4 °F 82% 29.78 in 10.0 mi ENE 16.1 mph 26.5 mph N/A   Overcast
3:52 PM 60.8 °F 55.4 °F 82% 29.78 in 10.0 mi East 16.1 mph 21.9 mph N/A   Overcast
4:13 PM 60.8 °F 55.4 °F 82% 29.78 in 7.0 mi East 16.1 mph 23.0 mph N/A   Overcast
4:33 PM 60.8 °F 57.2 °F 88% 29.78 in 4.0 mi East 13.8 mph 21.9 mph N/A   Overcast
4:53 PM 60.8 °F 57.2 °F 88% 29.78 in 5.0 mi ENE 15.0 mph 18.4 mph N/A   Overcast
5:13 PM 60.8 °F 57.2 °F 88% 29.76 in 7.0 mi ENE 17.3 mph 23.0 mph N/A   Overcast
5:33 PM 60.8 °F 57.2 °F 88% 29.73 in 5.0 mi ENE 18.4 mph 25.3 mph N/A   Overcast
5:53 PM 60.8 °F 57.2 °F 88% 29.72 in 5.0 mi ENE 17.3 mph 27.6 mph N/A   Overcast
6:13 PM 60.8 °F 59.0 °F 94% 29.72 in 5.0 mi East 19.6 mph - N/A   Overcast
6:33 PM 60.8 °F 59.0 °F 94% 29.71 in 5.0 mi East 16.1 mph 26.5 mph N/A   Overcast
6:52 PM 60.8 °F 59.0 °F 94% 29.70 in 5.0 mi ENE 16.1 mph 25.3 mph N/A   Overcast
7:13 PM 60.8 °F 59.0 °F 94% 29.71 in 5.0 mi ENE 17.3 mph 25.3 mph N/A   Overcast
7:33 PM 60.8 °F 59.0 °F 94% 29.71 in 4.0 mi East 17.3 mph 23.0 mph N/A   Overcast
7:52 PM 60.8 °F 59.0 °F 94% 29.68 in 4.0 mi East 20.7 mph 26.5 mph N/A Rain , Thunderstorm Rain
8:13 PM 60.8 °F 59.0 °F 94% 29.72 in 4.0 mi ESE 11.5 mph 21.9 mph 0.02 in Rain , Thunderstorm Light Thunderstorms and Rain
8:33 PM 60.8 °F 59.0 °F 94% 29.70 in 7.0 mi East 13.8 mph 26.5 mph 0.02 in Thunderstorm Overcast
8:53 PM 60.8 °F 59.0 °F 94% 29.69 in 10.0 mi East 10.4 mph - 0.02 in   Mostly Cloudy
9:12 PM 62.6 °F 59.0 °F 88% 29.70 in 10.0 mi East 16.1 mph 21.9 mph N/A   Scattered Clouds
9:33 PM 62.6 °F 59.0 °F 88% 29.71 in 10.0 mi East 15.0 mph 20.7 mph N/A   Mostly Cloudy
9:53 PM 62.6 °F 59.0 °F 88% 29.71 in 10.0 mi ESE 6.9 mph - N/A   Overcast
10:13 PM 60.8 °F 59.0 °F 94% 29.74 in 10.0 mi SE 4.6 mph - N/A   Overcast
10:33 PM 62.6 °F 59.0 °F 88% 29.75 in 7.0 mi SSW 9.2 mph - N/A   Overcast
10:52 PM 60.8 °F 53.6 °F 77% 29.75 in 10.0 mi WSW 13.8 mph - N/A   Mostly Cloudy
11:13 PM 59.0 °F 51.8 °F 77% 29.75 in 10.0 mi WSW 8.1 mph - N/A   Overcast
11:33 PM 57.2 °F 51.8 °F 82% 29.76 in 10.0 mi WSW 9.2 mph - N/A   Overcast
11:53 PM 53.6 °F 46.4 °F 77% 29.78 in 10.0 mi SW 9.2 mph - N/A   Overcast